When you browse on this site, cookies collect data to enhance your experience and personalize the content and advertising you see.
Visit our Privacy Policy to learn more. By continuing to use the site, you agree to this use of cookies and data.
  • In Hungary
  • List of Countries
  • For 7 days
  • Water Temperature
  • Weather Map
  • News
  • Weather Widgets
  • user-avatar
    Login

    Hourly Weather Ozernyy

    Today, 15 October, Tuesday

    Time Temperature Precipitation Wind Pressure Humidity
    00:00 +5°C° 0 mm 6 mps 733 mmHg 74%
    01:00 +5°C° 0 mm 6 mps 734 mmHg 76%
    02:00 +5°C° 0 mm 6 mps 734 mmHg 78%
    03:00 +4°C° 0 mm 6 mps 734 mmHg 80%
    04:00 +4°C° 0 mm 6 mps 734 mmHg 83%
    05:00 +4°C° 0 mm 6 mps 734 mmHg 84%
    06:00 +4°C° 0 mm 6 mps 735 mmHg 85%
    07:00 +5°C° 0 mm 5 mps 735 mmHg 87%
    08:00 +5°C° 0 mm 6 mps 735 mmHg 80%
    09:00 +8°C° 0 mm 7 mps 735 mmHg 74%
    10:00 +9°C° 0 mm 8 mps 735 mmHg 68%
    11:00 +9°C° 0.3 mm 8 mps 734 mmHg 71%
    12:00 +7°C° 0.3 mm 8 mps 734 mmHg 75%
    13:00 +7°C° 0.3 mm 9 mps 733 mmHg 79%
    14:00 +7°C° 1.4 mm 9 mps 732 mmHg 78%
    15:00 +7°C° 1.4 mm 9 mps 732 mmHg 78%
    16:00 +8°C° 1.4 mm 9 mps 731 mmHg 77%
    17:00 +10°C° 0.4 mm 9 mps 730 mmHg 76%
    18:00 +12°C° 0.4 mm 10 mps 729 mmHg 74%
    19:00 +13°C° 0.4 mm 11 mps 729 mmHg 73%
    20:00 +13°C° 0 mm 11 mps 728 mmHg 72%
    21:00 +13°C° 0 mm 11 mps 728 mmHg 70%
    22:00 +13°C° 0 mm 11 mps 728 mmHg 69%
    23:00 +12°C° 0 mm 10 mps 728 mmHg 74%

    Tomorrow, 16 October, Wednesday

    Time Temperature Precipitation Wind Pressure Humidity
    00:00 +11°C° 0 mm 9 mps 728 mmHg 78%
    01:00 +10°C° 0 mm 8 mps 728 mmHg 83%
    02:00 +10°C° 0 mm 8 mps 728 mmHg 83%
    03:00 +9°C° 0 mm 8 mps 729 mmHg 83%
    04:00 +7°C° 0 mm 8 mps 729 mmHg 83%
    05:00 +8°C° 0 mm 7 mps 730 mmHg 81%
    06:00 +6°C° 0 mm 7 mps 730 mmHg 80%
    07:00 +5°C° 0 mm 6 mps 730 mmHg 79%
    08:00 +5°C° 0 mm 6 mps 731 mmHg 76%
    09:00 +5°C° 0 mm 6 mps 731 mmHg 73%
    10:00 +5°C° 0 mm 6 mps 732 mmHg 71%
    11:00 +7°C° 0.1 mm 6 mps 732 mmHg 66%
    12:00 +7°C° 0.1 mm 6 mps 732 mmHg 61%
    13:00 +8°C° 0.1 mm 7 mps 732 mmHg 56%
    14:00 +6°C° 0.1 mm 7 mps 733 mmHg 55%
    15:00 +6°C° 0.1 mm 7 mps 733 mmHg 55%
    16:00 +6°C° 0.1 mm 8 mps 734 mmHg 54%
    17:00 +5°C° 0 mm 7 mps 735 mmHg 58%
    18:00 +4°C° 0 mm 7 mps 735 mmHg 61%
    19:00 +3°C° 0 mm 6 mps 736 mmHg 65%
    20:00 +3°C° 0 mm 6 mps 736 mmHg 66%
    21:00 +2°C° 0 mm 6 mps 737 mmHg 68%
    22:00 +1°C° 0 mm 6 mps 737 mmHg 69%
    23:00 +1°C° 0 mm 6 mps 738 mmHg 71%

    Day after tomorrow, 17 October, Thursday

    Time Temperature Precipitation Wind Pressure Humidity
    00:00 0°C° 0 mm 5 mps 738 mmHg 72%
    01:00 0°C° 0 mm 5 mps 739 mmHg 74%
    02:00 -1°C° 0 mm 5 mps 739 mmHg 75%
    03:00 -1°C° 0 mm 4 mps 740 mmHg 76%
    04:00 -1°C° 0 mm 4 mps 740 mmHg 77%
    05:00 -2°C° 0 mm 4 mps 740 mmHg 78%
    06:00 -2°C° 0 mm 4 mps 741 mmHg 78%
    07:00 -2°C° 0 mm 4 mps 741 mmHg 79%
    08:00 -1°C° 0 mm 4 mps 742 mmHg 72%
    09:00 0°C° 0 mm 4 mps 742 mmHg 66%
    10:00 +1°C° 0 mm 4 mps 742 mmHg 60%
    11:00 +3°C° 0 mm 4 mps 742 mmHg 57%
    12:00 +3°C° 0 mm 4 mps 742 mmHg 54%
    13:00 +4°C° 0 mm 4 mps 742 mmHg 50%
    14:00 +4°C° 0 mm 4 mps 742 mmHg 52%
    15:00 +4°C° 0 mm 4 mps 742 mmHg 53%
    16:00 +4°C° 0 mm 4 mps 742 mmHg 54%
    17:00 +3°C° 0 mm 4 mps 742 mmHg 58%
    18:00 +3°C° 0 mm 3 mps 742 mmHg 62%
    19:00 +2°C° 0 mm 3 mps 742 mmHg 66%
    20:00 +2°C° 0 mm 3 mps 742 mmHg 67%
    21:00 +2°C° 0 mm 3 mps 742 mmHg 68%
    22:00 +1°C° 0 mm 4 mps 742 mmHg 69%
    23:00 +1°C° 0 mm 4 mps 742 mmHg 68%

    18 October, Friday

    Time Temperature Precipitation Wind Pressure Humidity
    00:00 +1°C° 0 mm 4 mps 741 mmHg 67%
    01:00 +1°C° 0 mm 4 mps 741 mmHg 66%
    02:00 +1°C° 0.2 mm 5 mps 741 mmHg 66%
    03:00 +2°C° 0.2 mm 5 mps 740 mmHg 67%
    04:00 +2°C° 0.2 mm 5 mps 740 mmHg 67%
    05:00 +2°C° 0 mm 6 mps 740 mmHg 63%
    06:00 +2°C° 0 mm 6 mps 739 mmHg 59%
    07:00 +2°C° 0 mm 6 mps 739 mmHg 56%
    08:00 +3°C° 0 mm 7 mps 738 mmHg 51%
    09:00 +4°C° 0 mm 8 mps 738 mmHg 46%
    10:00 +6°C° 0 mm 8 mps 738 mmHg 41%
    11:00 +7°C° 0 mm 9 mps 737 mmHg 39%
    12:00 +7°C° 0 mm 9 mps 737 mmHg 36%
    13:00 +8°C° 0 mm 9 mps 737 mmHg 34%
    14:00 +9°C° 0 mm 8 mps 736 mmHg 35%
    15:00 +9°C° 0 mm 7 mps 736 mmHg 36%
    16:00 +9°C° 0 mm 7 mps 735 mmHg 37%
    17:00 +8°C° 0 mm 6 mps 735 mmHg 40%
    18:00 +7°C° 0 mm 6 mps 735 mmHg 44%
    19:00 +7°C° 0 mm 5 mps 735 mmHg 48%
    20:00 +6°C° 0 mm 5 mps 735 mmHg 50%
    21:00 +6°C° 0 mm 4 mps 735 mmHg 52%
    22:00 +6°C° 0 mm 4 mps 735 mmHg 54%
    23:00 +6°C° 0 mm 4 mps 735 mmHg 56%

    19 October, Saturday

    Time Temperature Precipitation Wind Pressure Humidity
    00:00 +6°C° 0 mm 4 mps 735 mmHg 58%
    01:00 +7°C° 0 mm 3 mps 735 mmHg 61%
    02:00 +5°C° 0.6 mm 4 mps 736 mmHg 70%
    03:00 +3°C° 0.6 mm 5 mps 736 mmHg 80%
    04:00 +2°C° 0.6 mm 6 mps 736 mmHg 89%
    05:00 0°C° 0.2 mm 7 mps 737 mmHg 91%
    06:00 -1°C° 0.2 mm 7 mps 737 mmHg 92%
    07:00 -2°C° 0.2 mm 8 mps 738 mmHg 93%
    08:00 -1°C° 0.1 mm 8 mps 738 mmHg 86%
    09:00 -1°C° 0.1 mm 7 mps 739 mmHg 79%
    10:00 -1°C° 0.1 mm 7 mps 740 mmHg 71%
    11:00 0°C° 0 mm 7 mps 740 mmHg 68%
    12:00 0°C° 0 mm 7 mps 741 mmHg 66%
    13:00 0°C° 0 mm 7 mps 741 mmHg 63%
    14:00 0°C° 0 mm 7 mps 742 mmHg 63%
    15:00 -1°C° 0 mm 7 mps 742 mmHg 64%
    16:00 -1°C° 0 mm 6 mps 742 mmHg 64%
    17:00 -2°C° 0 mm 6 mps 742 mmHg 67%
    18:00 -3°C° 0 mm 6 mps 743 mmHg 70%
    19:00 -2°C° 0 mm 5 mps 743 mmHg 72%
    20:00 -4°C° 0 mm 5 mps 743 mmHg 73%
    21:00 -4°C° 0 mm 5 mps 744 mmHg 74%
    22:00 -4°C° 0 mm 5 mps 744 mmHg 75%
    23:00 -5°C° 0 mm 5 mps 744 mmHg 76%

    20 October, Sunday

    Time Temperature Precipitation Wind Pressure Humidity
    00:00 -4°C° 0 mm 4 mps 744 mmHg 78%
    01:00 -4°C° 0 mm 4 mps 745 mmHg 79%
    02:00 -4°C° 0 mm 4 mps 745 mmHg 79%
    03:00 -4°C° 0 mm 4 mps 745 mmHg 79%
    04:00 -4°C° 0 mm 4 mps 745 mmHg 80%
    05:00 -5°C° 0 mm 4 mps 745 mmHg 80%
    06:00 -5°C° 0 mm 4 mps 745 mmHg 80%
    07:00 -5°C° 0 mm 4 mps 745 mmHg 80%
    08:00 -4°C° 0 mm 4 mps 745 mmHg 75%
    09:00 -3°C° 0 mm 4 mps 745 mmHg 69%
    10:00 -2°C° 0 mm 4 mps 746 mmHg 64%
    11:00 -1°C° 0 mm 4 mps 746 mmHg 60%
    12:00 0°C° 0 mm 4 mps 745 mmHg 56%
    13:00 +1°C° 0 mm 4 mps 745 mmHg 52%
    14:00 0°C° 0 mm 4 mps 745 mmHg 53%
    15:00 +1°C° 0 mm 3 mps 745 mmHg 54%
    16:00 +1°C° 0 mm 3 mps 745 mmHg 55%
    17:00 +1°C° 0 mm 3 mps 745 mmHg 58%
    18:00 0°C° 0 mm 3 mps 745 mmHg 61%
    19:00 -1°C° 0 mm 3 mps 745 mmHg 64%
    20:00 -1°C° 0 mm 2 mps 745 mmHg 65%
    21:00 -1°C° 0 mm 2 mps 745 mmHg 66%
    22:00 -2°C° 0 mm 2 mps 745 mmHg 67%
    23:00 -2°C° 0 mm 2 mps 745 mmHg 67%
    Show more